千帆星座-30 (QIANFAN-30)

导读

QIANFAN-30 是中国自主研发的北斗卫星导航系统中的重要成员,主要用于提供高精度定位、导航和授时服务。该卫星采用先进技术和稳定平台,具备更强的抗干扰能力和更广的覆盖范围,提升了北斗系统的整体性能。QIANFAN-30 的成功发射和运行,标志着中国在卫星导航领域的技术实力进一步增强,为全球用户提供更加可靠和精准的导航服务,广泛应用于交通、农业、通信、应急救援等多个领域。

基本信息
目录编号:
61563
目录名称:
QIANFAN-30
国际标识:
2024-185M
轨道中心:
EARTH
卫星名称:
千帆星座-30
卫星全名:
千帆星座-30 (QIANFAN-30)
卫星状态:
在轨 (已飞行696 天)
发射日期:
2024-10-15 UTC
国别 :
中国 (CN)
星等 :
--
轨道信息
数据来源 国际轨道数据 AOE轨道数据
星历时间 2026-09-10T23:30:21+0800
11小时前
查看轨道信息
2026-09-10T16:00:00+0800
19小时前
查看轨道信息
半长轴 7450.125km 7450.127km
偏心率 0.000682 0.0006015
轨道倾角 88.981° 88.988°
近地点辐角 344.044° 347.466°
升交点赤经 52.833° 52.864°
平近点角 16.049° 293.511°
近地点 1066.907km 1067.508km
远地点 1077.069km 1076.472km
周期 106.661分钟 106.661分钟
每日圈数 13.500738 13.500731
详细信息
卫星平台:
30
覆盖范围:
全球
运营商:
上海垣信卫星科技有限公司
运营商所在国:
中国
使用方式:
暂无
卫星简介
千帆星座,也被称为“G60星链”计划,是中国版“星链”的重要组成部分,旨在打造一个由1.4万多颗低轨宽频多媒体卫星构成的庞大星座。千帆星座计划由上海垣信卫星科技有限公司负责实施,于2023年启动建设。该项目是我国第二个低轨卫星大星座,旨在通过构建庞大的卫星网络,为全球用户提供高质量的通信和宽带互联网服务。
2D轨道图
3D轨道图
轨道高度分析图
轨道倾角分析图
轨道综合分析图
查看轨道综合分析图
与全量物体交会距离演化趋势
与全量物体交会风险概率演化趋势